Flag for New Zealand Weather past 2 weeks in Wellington, New Zealand

Now
55 °F

Partly sunny.


Feels Like: 51 °F
Forecast: 45 / 51 °F
Wind: 18 mph from North

Location: Wellington Airport

Current Time: Jul 28, 2015 at 3:47:28 PM

Latest Report: Jul 28, 2015 at 3:00 PM


Visibility: N/A

Pressure: 29.53 "Hg

Humidity: 77%

Dew point: 48 °F

Location of WellingtonLocation

Historic Weather in Wellington — Graph

°F

Wellington temperature yesterday

Maximum temperature yesterday: 59 °F (at 3:00 PM)
Minimum temperature yesterday: 54 °F (at 3:30 AM)
Average temperature yesterday: 56 °F

Past Weeks' High & Low Weather Summary

 TemperatureHumidityPressure
High59 °F (Jul 16, 12:00 PM)100% (Jul 16, 3:00 AM)30.57 "Hg (Jul 16, 3:00 AM)
Low37 °F (Jul 25, 5:30 AM)41% (Jul 21, 2:00 PM)29.18 "Hg (Jul 18, 5:00 PM)
Average51 °F76%30.08 "Hg
* Reported Jul 13 2:00 PM — Jul 28 2:30 PM, Wellington, Weather by CustomWeather, © 2015

Note: Actual official high and low records may vary slightly from our data, if they occured in-between our weather recording intervals... More about our weather records

Advertising

Wellington weather history for previous 24 hours

 ConditionsComfort  
Time TempWeatherWind HumidityBarometerVisibility
2:30 PM
Tue, Jul 28
57 °FPassing clouds.18 mph67%29.53 "HgN/A
2:00 PM57 °FCool.16 mph63%29.53 "HgN/A
1:30 PM57 °FCool.16 mph63%29.53 "HgN/A
1:00 PM57 °FPassing clouds.17 mph63%29.53 "HgN/A
12:30 PM57 °FPassing clouds.16 mph63%29.56 "HgN/A
12:00 PM57 °FRefreshingly cool.15 mph59%29.56 "HgN/A
11:30 AM57 °FRefreshingly cool.14 mph59%29.56 "HgN/A
11:00 AM57 °FCool.12 mph67%29.59 "HgN/A
10:30 AM55 °FCool.15 mph72%29.59 "HgN/A
10:00 AM55 °FCool.15 mph67%29.59 "HgN/A
9:30 AM55 °FCool.13 mph67%29.56 "HgN/A
9:00 AM54 °FCool.12 mph72%29.56 "HgN/A
8:30 AM54 °FCool.12 mph77%29.56 "HgN/A
8:00 AM54 °FCool.12 mph82%29.56 "HgN/A
7:30 AM54 °FPartly sunny.14 mph88%29.56 "HgN/A
7:00 AM54 °FPartly sunny.12 mph88%29.56 "HgN/A
6:30 AM54 °FOvercast.14 mph88%29.56 "HgN/A
6:00 AM54 °FMostly cloudy.15 mph88%29.56 "HgN/A
5:30 AM52 °FPassing clouds.15 mph94%29.56 "HgN/A
5:00 AM54 °FPassing clouds.14 mph88%29.56 "HgN/A
4:30 AM54 °FOvercast.12 mph88%29.56 "HgN/A
4:00 AM54 °FLight rain. Partly cloudy.13 mph88%29.56 "HgN/A
3:30 AM55 °FLight rain. Passing clouds.21 mph88%29.59 "HgN/A
3:00 AM55 °FSprinkles. Passing clouds.18 mph88%29.59 "Hg5 mi
2:30 AM55 °FPassing clouds.16 mph88%29.59 "HgN/A
2:00 AM54 °FPassing clouds.16 mph88%29.62 "HgN/A
1:30 AM54 °FPassing clouds.17 mph88%29.62 "HgN/A
1:00 AM55 °FPassing clouds.17 mph82%29.62 "HgN/A
12:30 AM55 °FPartly cloudy.18 mph88%29.62 "HgN/A
12:00 AM55 °FRain. Mostly cloudy.16 mph100%29.62 "Hg1 mi
11:30 PM
Mon, Jul 27
55 °FSprinkles. Fog.17 mph94%29.65 "Hg3 mi
11:00 PM55 °FDrizzle. Fog.15 mph94%29.65 "Hg2 mi
10:30 PM55 °FDrizzle. Fog.16 mph94%29.68 "Hg2 mi
10:00 PM57 °FLight rain. Passing clouds.13 mph82%29.68 "HgN/A
9:30 PM57 °FMostly cloudy.9 mph82%29.68 "HgN/A
9:00 PM55 °FPassing clouds.13 mph88%29.71 "HgN/A
8:30 PM55 °FLight rain. Passing clouds.13 mph94%29.71 "HgN/A
8:00 PM55 °FScattered showers. Passing clouds.15 mph94%29.74 "HgN/A
7:30 PM55 °FPassing clouds.16 mph94%29.74 "HgN/A
7:00 PM55 °FDrizzle. Overcast.14 mph94%29.77 "Hg2 mi
6:30 PM55 °FLight rain. Passing clouds.16 mph94%29.77 "Hg4 mi
6:00 PM57 °FSprinkles. Passing clouds.12 mph82%29.77 "HgN/A
5:30 PM57 °FPassing clouds.12 mph82%29.77 "HgN/A
5:00 PM57 °FPassing clouds.14 mph82%29.80 "HgN/A
4:30 PM57 °FPartly cloudy.16 mph77%29.80 "HgN/A
4:00 PM59 °FPartly sunny.17 mph72%29.83 "HgN/A
3:30 PM57 °FPartly sunny.16 mph77%29.83 "HgN/A
3:00 PM59 °FOvercast.18 mph72%29.86 "HgN/A
Weather by CustomWeather, © 2015

See weather overviewHow to use our weather pages